TimeEST,TemperatureF,Dew PointF,Humidity,Sea Level PressureIn,VisibilityMPH,Wind Direction,Wind SpeedMPH,Gust SpeedMPH,PrecipitationIn,Events,Conditions,WindDirDegrees,DateUTC
12:15 AM,19.4,14.0,80,29.85,3.0,ENE,5.8,-,N/A,,Overcast,70,2013-01-20 05:15:00
12:35 AM,19.4,14.0,80,29.84,2.5,ENE,5.8,-,N/A,,Overcast,60,2013-01-20 05:35:00
1:15 AM,19.4,15.8,86,29.83,2.0,ENE,5.8,-,N/A,,Overcast,60,2013-01-20 06:15:00
1:35 AM,19.4,15.8,86,29.82,2.0,East,4.6,-,N/A,,Overcast,90,2013-01-20 06:35:00
1:55 AM,21.2,15.8,80,29.81,2.0,ESE,4.6,-,N/A,,Overcast,110,2013-01-20 06:55:00
2:15 AM,21.2,15.8,80,29.81,1.8,ESE,9.2,-,N/A,,Overcast,120,2013-01-20 07:15:00
2:35 AM,21.2,15.8,80,29.79,2.0,East,5.8,21.9,N/A,,Overcast,100,2013-01-20 07:35:00
2:55 AM,19.4,14.0,80,29.78,8.0,ESE,10.4,21.9,N/A,,Overcast,120,2013-01-20 07:55:00
3:15 AM,19.4,14.0,80,29.75,9.0,East,9.2,-,N/A,,Overcast,100,2013-01-20 08:15:00
3:35 AM,19.4,12.2,74,29.75,5.0,SE,6.9,17.3,N/A,,Overcast,130,2013-01-20 08:35:00
3:55 AM,17.6,10.4,73,29.74,5.0,SE,10.4,18.4,N/A,,Overcast,130,2013-01-20 08:55:00
4:15 AM,17.6,12.2,79,29.74,5.0,SE,12.7,20.7,N/A,,Overcast,130,2013-01-20 09:15:00
4:55 AM,17.6,12.2,79,29.71,1.5,ESE,11.5,-,N/A,,Overcast,120,2013-01-20 09:55:00
5:15 AM,17.6,12.2,79,29.68,2.5,ESE,9.2,-,N/A,,Overcast,110,2013-01-20 10:15:00
5:35 AM,17.6,12.2,79,29.66,1.8,ESE,9.2,-,N/A,,Overcast,110,2013-01-20 10:35:00
5:55 AM,17.6,14.0,86,29.64,2.0,ESE,10.4,-,N/A,,Overcast,110,2013-01-20 10:55:00
6:15 AM,19.4,14.0,80,29.63,2.5,ESE,8.1,-,N/A,,Overcast,120,2013-01-20 11:15:00
6:35 AM,19.4,12.2,74,29.60,2.0,ESE,8.1,16.1,N/A,,Overcast,110,2013-01-20 11:35:00
6:55 AM,19.4,15.8,86,29.57,4.0,ESE,11.5,16.1,N/A,,Overcast,120,2013-01-20 11:55:00
7:16 AM,19.4,14.0,80,29.56,8.0,ESE,6.9,-,N/A,,Overcast,120,2013-01-20 12:16:00
7:35 AM,19.4,12.2,74,29.53,10.0,ESE,3.5,-,N/A,,Overcast,110,2013-01-20 12:35:00
7:55 AM,19.4,15.8,86,29.51,10.0,ESE,3.5,-,N/A,,Overcast,110,2013-01-20 12:55:00
8:15 AM,19.4,15.8,86,29.49,10.0,ESE,5.8,-,N/A,,Overcast,120,2013-01-20 13:15:00
8:35 AM,21.2,15.8,80,29.46,10.0,SE,6.9,-,N/A,,Overcast,140,2013-01-20 13:35:00
8:55 AM,21.2,15.8,80,29.44,10.0,SE,9.2,-,N/A,,Overcast,130,2013-01-20 13:55:00
9:15 AM,23.0,17.6,80,29.42,10.0,SE,11.5,16.1,N/A,,Overcast,130,2013-01-20 14:15:00
9:35 AM,23.0,19.4,86,29.40,10.0,SE,5.8,-,N/A,,Overcast,140,2013-01-20 14:35:00
9:55 AM,24.8,17.6,74,29.39,10.0,SE,4.6,-,N/A,,Overcast,140,2013-01-20 14:55:00
10:15 AM,24.8,19.4,80,29.36,10.0,SSE,8.1,-,N/A,,Overcast,150,2013-01-20 15:15:00
10:35 AM,24.8,19.4,80,29.34,10.0,SSE,10.4,-,N/A,,Overcast,150,2013-01-20 15:35:00
10:55 AM,24.8,19.4,80,29.31,10.0,SSE,10.4,-,N/A,,Overcast,160,2013-01-20 15:55:00
11:15 AM,24.8,21.2,86,29.27,10.0,SSE,6.9,-,N/A,,Overcast,150,2013-01-20 16:15:00
11:35 AM,24.8,21.2,86,29.26,8.0,SSE,8.1,-,N/A,,Overcast,160,2013-01-20 16:35:00
11:55 AM,26.6,21.2,80,29.24,6.0,SSE,11.5,16.1,N/A,,Overcast,150,2013-01-20 16:55:00
12:15 PM,26.6,23.0,86,29.22,5.0,SE,8.1,-,N/A,,Overcast,140,2013-01-20 17:15:00
12:35 PM,26.6,23.0,86,29.22,5.0,SSE,4.6,-,N/A,,Overcast,160,2013-01-20 17:35:00
12:55 PM,28.4,23.0,80,29.21,10.0,SSE,3.5,-,N/A,,Mostly Cloudy,150,2013-01-20 17:55:00
1:15 PM,28.4,26.6,93,29.19,10.0,South,4.6,-,N/A,,Mostly Cloudy,180,2013-01-20 18:15:00
1:35 PM,33.8,28.4,81,29.19,10.0,SSW,10.4,-,N/A,,Mostly Cloudy,200,2013-01-20 18:35:00
1:55 PM,35.6,28.4,75,29.19,10.0,South,16.1,-,N/A,,Scattered Clouds,190,2013-01-20 18:55:00
2:15 PM,35.6,28.4,75,29.19,10.0,South,13.8,18.4,N/A,,Partly Cloudy,190,2013-01-20 19:15:00
2:35 PM,37.4,26.6,65,29.19,10.0,SSW,17.3,21.9,N/A,,Clear,200,2013-01-20 19:35:00
2:55 PM,37.4,26.6,65,29.21,10.0,SW,15.0,26.5,0.01,,Partly Cloudy,220,2013-01-20 19:55:00
3:15 PM,37.4,24.8,60,29.21,10.0,SW,16.1,26.5,N/A,,Clear,230,2013-01-20 20:15:00
3:35 PM,37.4,24.8,60,29.22,10.0,SSW,13.8,23.0,0.01,,Partly Cloudy,210,2013-01-20 20:35:00
3:55 PM,35.6,21.2,56,29.22,10.0,SW,18.4,28.8,0.01,,Scattered Clouds,230,2013-01-20 20:55:00
4:35 PM,35.6,23.0,60,29.24,10.0,SW,20.7,33.4,N/A,,Mostly Cloudy,230,2013-01-20 21:35:00
4:55 PM,33.8,23.0,65,29.25,10.0,WSW,20.7,28.8,N/A,,Scattered Clouds,240,2013-01-20 21:55:00
5:15 PM,33.8,19.4,56,29.26,10.0,WSW,16.1,28.8,N/A,,Scattered Clouds,240,2013-01-20 22:15:00
5:35 PM,33.8,17.6,52,29.28,10.0,WSW,19.6,29.9,N/A,,Scattered Clouds,240,2013-01-20 22:35:00
5:55 PM,32.0,17.6,55,29.29,10.0,WSW,19.6,33.4,N/A,,Mostly Cloudy,240,2013-01-20 22:55:00
6:15 PM,30.2,17.6,60,29.30,8.0,SW,18.4,33.4,N/A,,Mostly Cloudy,230,2013-01-20 23:15:00
6:35 PM,30.2,12.2,47,29.32,2.0,WSW,28.8,40.3,N/A,,Scattered Clouds,240,2013-01-20 23:35:00
6:55 PM,28.4,12.2,51,29.34,1.5,WSW,23.0,44.9,0.01,,Scattered Clouds,240,2013-01-20 23:55:00
7:15 PM,28.4,12.2,51,29.34,10.0,SW,17.3,27.6,N/A,,Scattered Clouds,230,2013-01-21 00:15:00
7:35 PM,26.6,12.2,55,29.36,8.0,WSW,20.7,33.4,N/A,,Scattered Clouds,240,2013-01-21 00:35:00
7:55 PM,26.6,10.4,51,29.37,10.0,WSW,18.4,32.2,N/A,,Mostly Cloudy,250,2013-01-21 00:55:00
8:15 PM,23.0,5.0,46,29.39,1.5,WSW,31.1,42.6,N/A,,Mostly Cloudy,250,2013-01-21 01:15:00
8:35 PM,21.2,10.4,63,29.41,5.0,West,29.9,34.5,N/A,,Mostly Cloudy,260,2013-01-21 01:35:00
8:55 PM,19.4,5.0,54,29.43,2.5,WSW,26.5,39.1,N/A,,Mostly Cloudy,240,2013-01-21 01:55:00
9:15 PM,17.6,3.2,53,29.46,6.0,WSW,27.6,36.8,N/A,,Scattered Clouds,250,2013-01-21 02:15:00
9:35 PM,15.8,-0.4,49,29.48,3.0,WSW,21.9,33.4,N/A,,Scattered Clouds,250,2013-01-21 02:35:00
9:55 PM,12.2,-2.2,53,29.52,10.0,West,16.1,28.8,N/A,,Mostly Cloudy,260,2013-01-21 02:55:00
10:15 PM,8.6,-5.8,52,29.54,3.0,WSW,26.5,39.1,N/A,,Scattered Clouds,250,2013-01-21 03:15:00
10:35 PM,6.8,-7.6,52,29.56,6.0,West,18.4,31.1,N/A,,Partly Cloudy,270,2013-01-21 03:35:00
10:55 PM,6.8,-9.4,48,29.57,10.0,West,15.0,-,N/A,,Clear,280,2013-01-21 03:55:00
11:15 PM,5.0,-9.4,52,29.58,10.0,West,12.7,21.9,N/A,,Clear,270,2013-01-21 04:15:00
11:35 PM,5.0,-7.6,56,29.57,10.0,West,10.4,18.4,N/A,,Clear,260,2013-01-21 04:35:00
11:55 PM,5.0,-7.6,56,29.57,10.0,WSW,15.0,25.3,N/A,,Clear,250,2013-01-21 04:55:00